{"data":{"norad_id":61053,"epoch":"2026-09-21T20:55:38.004096Z","epoch_age_seconds":73536,"freshness":"FRESH","line1":"1 61053U 24164D   26264.87196764 -.00000799  00000+0 -17316-5 0  9999","line2":"2 61053  53.1603  64.0089 0001227  72.6242 287.4910 15.69716848116236","mean_motion":15.69716848,"eccentricity":0.0001227,"inclination_deg":53.1603,"raan_deg":64.0089,"arg_perigee_deg":72.6242,"mean_anomaly_deg":287.491,"bstar":-1.7316e-6,"rev_number":11623,"period_min":91.73629000891,"perigee_km":358.88042065858,"apogee_km":360.53388761401,"semimajor_km":6737.8441541363,"source":"CELESTRAK","updated_at":"2026-09-22T09:00:49.330964Z"}}